Tillbaka till svenska Fidonet
English   Information   Debug  
FILM   0/18
FNEWS_PUBLISH   4983
FN_SYSOP   42232
FN_SYSOP_OLD1   71952
FTP_FIDO   0/2
FTSC_PUBLIC   0/13976
FUNNY   0/4886
GENEALOGY.EUR   0/71
GET_INFO   105
GOLDED   0/408
HAM   4716/16712
HOLYSMOKE   0/6791
HOT_SITES   0/1
HTMLEDIT   0/71
HUB203   466
HUB_100   264
HUB_400   39
HUMOR   0/29
IC   0/2851
INTERNET   0/424
INTERUSER   0/3
IP_CONNECT   719
JAMNNTPD   0/233
JAMTLAND   0/47
KATTY_KORNER   0/41
LAN   0/16
LINUX-USER   0/19
LINUXHELP   0/1155
LINUX   0/22382
LINUX_BBS   0/957
mail   18.68
mail_fore_ok   249
MENSA   0/341
MODERATOR   0/102
MONTE   0/992
MOSCOW_OKLAHOMA   0/1245
MUFFIN   0/783
MUSIC   0/321
N203_STAT   938
N203_SYSCHAT   313
NET203   321
NET204   69
NET_DEV   0/10
NORD.ADMIN   0/101
NORD.CHAT   0/2572
NORD.FIDONET   189
NORD.HARDWARE   0/28
NORD.KULTUR   0/114
NORD.PROG   0/32
NORD.SOFTWARE   0/88
NORD.TEKNIK   0/58
NORD   0/453
OCCULT_CHAT   0/93
OS2BBS   0/787
OS2DOSBBS   0/580
OS2HW   0/42
OS2INET   0/37
OS2LAN   0/134
OS2PROG   0/36
OS2REXX   0/113
OS2USER-L   207
OS2   0/4831
OSDEBATE   0/18996
PASCAL   0/490
PERL   0/457
PHP   0/45
POINTS   0/405
POLITICS   0/29554
POL_INC   0/14731
PSION   103
R20_ADMIN   1133
R20_AMATORRADIO   0/2
R20_BEST_OF_FIDONET   16
R20_CHAT   0/897
R20_DEPP   0/3
R20_DEV   400
R20_ECHO2   1889
R20_ECHOPRES   0/35
R20_ESTAT   0/719
R20_FIDONETPROG...
...RAM.MYPOINT
  0/2
R20_FIDONETPROGRAM   0/22
R20_FIDONET   0/248
R20_FILEFIND   0/24
R20_FILEFOUND   0/22
R20_HIFI   0/3
R20_INFO2   3781
R20_INTERNET   0/12940
R20_INTRESSE   0/60
R20_INTR_KOM   0/99
R20_KANDIDAT.CHAT   42
R20_KANDIDAT   28
R20_KOM_DEV   112
R20_KONTROLL   0/13360
R20_KORSET   0/18
R20_LOKALTRAFIK   0/24
R20_MODERATOR   0/1852
R20_NC   76
R20_NET200   245
R20_NETWORK.OTH...
...ERNETS
  0/13
R20_OPERATIVSYS...
...TEM.LINUX
  0/44
R20_PROGRAMVAROR   0/1
R20_REC2NEC   534
R20_SFOSM   0/341
R20_SF   0/108
R20_SPRAK.ENGLISH   0/1
R20_SQUISH   107
R20_TEST   2
R20_WORST_OF_FIDONET   20
RAR   0/9
RA_MULTI   106
RA_UTIL   0/162
REGCON.EUR   0/2069
REGCON   0/13
SCIENCE   0/1206
SF   0/239
SHAREWARE_SUPPORT   0/5146
SHAREWRE   0/14
SIMPSONS   0/169
STATS_OLD1   0/2539.065
STATS_OLD2   0/2530
STATS_OLD3   0/2395.095
STATS_OLD4   0/1692.25
SURVIVOR   0/495
SYSOPS_CORNER   0/3
SYSOP   0/84
TAGLINES   0/112
TEAMOS2   0/4530
TECH   0/2617
TEST.444   0/105
TRAPDOOR   0/19
TREK   0/755
TUB   0/290
UFO   0/40
UNIX   0/1316
USA_EURLINK   0/102
USR_MODEMS   0/1
VATICAN   0/2740
VIETNAM_VETS   0/14
VIRUS   0/378
VIRUS_INFO   0/201
VISUAL_BASIC   0/473
WHITEHOUSE   0/5187
WIN2000   0/101
WIN32   0/30
WIN95   0/4291
WIN95_OLD1   0/70272
WINDOWS   0/1517
WWB_SYSOP   0/419
WWB_TECH   0/810
ZCC-PUBLIC   0/1
ZEC   4

 
4DOS   0/134
ABORTION   0/7
ALASKA_CHAT   0/506
ALLFIX_FILE   0/1313
ALLFIX_FILE_OLD1   0/7997
ALT_DOS   0/152
AMATEUR_RADIO   0/1039
AMIGASALE   0/14
AMIGA   0/331
AMIGA_INT   0/1
AMIGA_PROG   0/20
AMIGA_SYSOP   0/26
ANIME   0/15
ARGUS   0/924
ASCII_ART   0/340
ASIAN_LINK   0/651
ASTRONOMY   0/417
AUDIO   0/92
AUTOMOBILE_RACING   0/105
BABYLON5   0/17862
BAG   135
BATPOWER   0/361
BBBS.ENGLISH   0/382
BBSLAW   0/109
BBS_ADS   0/5290
BBS_INTERNET   0/507
BIBLE   0/3563
BINKD   0/1119
BINKLEY   0/215
BLUEWAVE   0/2173
CABLE_MODEMS   0/25
CBM   0/46
CDRECORD   0/66
CDROM   0/20
CLASSIC_COMPUTER   0/378
COMICS   0/15
CONSPRCY   0/899
COOKING   42003
COOKING_OLD1   0/24719
COOKING_OLD2   0/40862
COOKING_OLD3   0/37489
COOKING_OLD4   0/35496
COOKING_OLD5   9370
C_ECHO   0/189
C_PLUSPLUS   0/31
DIRTY_DOZEN   0/201
DOORGAMES   0/2333
DOS_INTERNET   0/196
duplikat   6102
ECHOLIST   0/18295
EC_SUPPORT   0/318
ELECTRONICS   0/359
ELEKTRONIK.GER   1534
ENET.LINGUISTIC   0/13
ENET.POLITICS   0/4
ENET.SOFT   0/11701
ENET.SYSOP   34332
ENET.TALKS   0/32
ENGLISH_TUTOR   0/2000
EVOLUTION   0/1335
FDECHO   0/217
FDN_ANNOUNCE   0/7068
FIDONEWS   25122
FIDONEWS_OLD1   0/49742
FIDONEWS_OLD2   0/35949
FIDONEWS_OLD3   0/30874
FIDONEWS_OLD4   0/37224
FIDO_SYSOP   12973
FIDO_UTIL   0/180
FILEFIND   0/209
FILEGATE   0/212
Möte HAM, 16712 texter
 lista första sista föregående nästa
Text 3286, 885 rader
Skriven 2009-10-24 23:30:22 av Amsat List (1:323/120.0)
Ärende: [keps]  orb09297.amsa
=============================
[keps]  orb09297.amsa

Return-Path: <keps-bounces@amsat.org>
X-Rcpt: craig.healy@chowda.com
X-UIDL: 1256440208.17305

SB KEPS @ AMSAT  $ORB09297.O
Orbital Elements  09297.OSCAR

HR AMSAT ORBITAL ELEMENTS FOR OSCAR SATELLITES
FROM WA5QGD FORT WORTH,TX October 24, 2009
Send Subscribe/unsubscribe to KEPS at 
http://www.amsat.org/mailman/listinfo/keps
BID: ORB09297.O
TO ALL RADIO AMATEURS BT

Satellite: AO-07
Catalog number: 07530
Epoch time:      09297.61450316
Element set:     612
Inclination:      101.4191 deg
RA of node:       317.5055 deg
Eccentricity:    0.0012112
Arg of perigee:   015.7283 deg
Mean anomaly:     344.4162 deg
Mean motion:   12.53576887 rev/day
Decay rate:       -2.7e-07 rev/day^2
Epoch rev:           59893
Checksum:              291

Satellite: FO-29
Catalog number: 24278
Epoch time:      09296.60600480
Element set:    0176
Inclination:      098.5311 deg
RA of node:       153.2553 deg
Eccentricity:    0.0350990
Arg of perigee:   017.6266 deg
Mean anomaly:     343.6691 deg
Mean motion:   13.52946134 rev/day
Decay rate:        2.9e-07 rev/day^2
Epoch rev:           65111
Checksum:              309

Satellite: SO-33
Catalog number: 25509
Epoch time:      09296.66512001
Element set:    0570
Inclination:      031.4332 deg
RA of node:       045.9876 deg
Eccentricity:    0.0353891
Arg of perigee:   021.8079 deg
Mean anomaly:     339.7192 deg
Mean motion:   14.28268138 rev/day
Decay rate:       1.32e-06 rev/day^2
Epoch rev:           57421
Checksum:              309

Satellite: RS-22
Catalog number: 27939
Epoch time:      09296.68083358
Element set:     920
Inclination:      097.9204 deg
RA of node:       166.7281 deg
Eccentricity:    0.0014675
Arg of perigee:   086.9218 deg
Mean anomaly:     273.3677 deg
Mean motion:   14.63349314 rev/day
Decay rate:        6.1e-07 rev/day^2
Epoch rev:           32436
Checksum:              340

Satellite: VO-52
Catalog number: 28650
Epoch time:      09296.63683321
Element set:    0351
Inclination:      097.7277 deg
RA of node:       353.8665 deg
Eccentricity:    0.0026549
Arg of perigee:   332.3447 deg
Mean anomaly:     027.6349 deg
Mean motion:   14.81630781 rev/day
Decay rate:       -9.5e-07 rev/day^2
Epoch rev:           24166
Checksum:              337

Satellite: SO-67
Catalog number: 35870
Epoch time:      09297.80851693
Element set:     109
Inclination:      097.3679 deg
RA of node:       347.1782 deg
Eccentricity:    0.0012347
Arg of perigee:   157.1810 deg
Mean anomaly:     310.1232 deg
Mean motion:   15.22821106 rev/day
Decay rate:       5.26e-06 rev/day^2
Epoch rev:             564
Checksum:              304

/EX
SB KEPS @ AMSAT  $ORB09297.D
Orbital Elements  09297.MICROS

HR AMSAT ORBITAL ELEMENTS FOR THE MICROSATS
FROM WA5QGD FORT WORTH,TX October 24, 2009
Send Subscribe/unsubscribe to KEPS at 
http://www.amsat.org/mailman/listinfo/keps
BID: ORB09297.D
TO ALL RADIO AMATEURS BT

Satellite: AO-16
Catalog number: 20439
Epoch time:      09296.92471688
Element set:    0735
Inclination:      098.2966 deg
RA of node:       259.5833 deg
Eccentricity:    0.0011353
Arg of perigee:   144.2361 deg
Mean anomaly:     215.9597 deg
Mean motion:   14.31836646 rev/day
Decay rate:        7.0e-08 rev/day^2
Epoch rev:           03157
Checksum:              335

Satellite: LO-19
Catalog number: 20442
Epoch time:      09296.61132415
Element set:     644
Inclination:      098.2600 deg
RA of node:       266.0468 deg
Eccentricity:    0.0012551
Arg of perigee:   141.7418 deg
Mean anomaly:     218.4639 deg
Mean motion:   14.32070418 rev/day
Decay rate:       -6.0e-07 rev/day^2
Epoch rev:            3169
Checksum:              282

Satellite: AO-27
Catalog number: 22825
Epoch time:      09297.79636745
Element set:     371
Inclination:      098.4547 deg
RA of node:       247.2352 deg
Eccentricity:    0.0007636
Arg of perigee:   239.7165 deg
Mean anomaly:     120.3269 deg
Mean motion:   14.29276393 rev/day
Decay rate:        5.8e-07 rev/day^2
Epoch rev:           83842
Checksum:              348

Satellite: IO-26
Catalog number: 22826
Epoch time:      09297.83369807
Element set:     102
Inclination:      098.4465 deg
RA of node:       247.9654 deg
Eccentricity:    0.0008112
Arg of perigee:   235.8945 deg
Mean anomaly:     124.1469 deg
Mean motion:   14.29529172 rev/day
Decay rate:       -1.0e-07 rev/day^2
Epoch rev:           83853
Checksum:              332

Satellite: GO-32
Catalog number: 25397
Epoch time:      09297.71726895
Element set:      22
Inclination:      098.3213 deg
RA of node:       313.0894 deg
Eccentricity:    0.0000777
Arg of perigee:   183.7974 deg
Mean anomaly:     176.3194 deg
Mean motion:   14.23165473 rev/day
Decay rate:        2.4e-07 rev/day^2
Epoch rev:           58655
Checksum:              334

Satellite: NO-44
Catalog number: 26931
Epoch time:      09297.71452613
Element set:     296
Inclination:      067.0512 deg
RA of node:       090.6405 deg
Eccentricity:    0.0006813
Arg of perigee:   273.0105 deg
Mean anomaly:     087.0213 deg
Mean motion:   14.29571386 rev/day
Decay rate:       1.54e-06 rev/day^2
Epoch rev:           42109
Checksum:              286

Satellite: SO-50
Catalog number: 27607
Epoch time:      09296.63923156
Element set:      15
Inclination:      064.5602 deg
RA of node:       354.9647 deg
Eccentricity:    0.0051834
Arg of perigee:   172.6899 deg
Mean anomaly:     187.4974 deg
Mean motion:   14.71467938 rev/day
Decay rate:        1.3e-07 rev/day^2
Epoch rev:           36757
Checksum:              351

